Weather History for Pinedale, WY

Change the Weather History Date:

Sunday, November 11, 2012

  Actual Average (KBPI) Record (KBPI)
Temperature  
Mean Temperature 10 °F 26 °F  
Max Temperature 19 °F 41 °F 60 °F (1999)
Min Temperature 1 °F 12 °F -3 °F (2000)
Degree Days  
Heating Degree Days 55 39  
Month to date heating degree days 397  
Since 1 July heating degree days 1977  
Cooling Degree Days 0 0  
Month to date cooling degree days 0  
Year to date cooling degree days 35  
Moisture  
Dew Point 3 °F    
Average Humidity 73    
Maximum Humidity 92    
Minimum Humidity 49    
Precipitation  
Precipitation 0.00 in 0.00 in 0.20 in (2004)
Month to date precipitation 0.08  
Year to date precipitation 6.05  
Sea Level Pressure  
Sea Level Pressure 30.03 in    
Wind  
Wind Speed 9 mph (WNW)    
Max Wind Speed 25 mph    
Max Gust Speed 36 mph    
Visibility 10 miles    
Events      
T = Trace of Precipitation, MM = Missing Value Source: NWS Daily Summary

Daily Weather History Graph

Daily Weather History Graph

Search for Another Location

Airport:

Trip Planner

Search our weather history database for the weather conditions in past years. The results will help you decide how hot, cold, wet, or windy it might be!

Date:

Astronomy

Nov. 11, 2012 Rise Set
Actual Time 7:06 AM MST 4:59 PM MST
Civil Twilight 6:36 AM MST 5:29 PM MST
Nautical Twilight 6:02 AM MST 6:03 PM MST
Astronomical Twilight 5:29 AM MST 6:36 PM MST
Moon 4:21 AM MST (11/11) 3:27 PM MST (11/11)
Length of Visible Light 10h 53m
Length of Day
9h 52m
Waning Crescent, 7% of the Moon is Illuminated
Nov 11
Waning Crescent
Nov 13
New
Nov 20
First Quarter
Nov 28
Full
Dec 6
Last Quarter

Hourly Weather History & Observations

Time (MST) Temp. Windchill Dew Point Humidity Pressure Visibility Wind Dir Wind Speed Gust Speed Precip Events Conditions
12:15 AM 8.6 °F -1.3 °F 5.0 °F 85% 29.81 in 10.0 mi NW 5.8 mph - N/A   Scattered Clouds
12:35 AM 6.8 °F -4.8 °F 3.2 °F 85% 29.82 in 10.0 mi NW 6.9 mph - N/A   Clear
12:55 AM 6.8 °F -3.5 °F 5.0 °F 92% 29.82 in 10.0 mi WNW 5.8 mph - N/A   Mostly Cloudy
1:15 AM 8.6 °F 0.1 °F 5.0 °F 85% 29.83 in 10.0 mi WNW 4.6 mph - N/A   Mostly Cloudy
1:35 AM 5.0 °F -4.1 °F 3.2 °F 92% 29.83 in 10.0 mi West 4.6 mph - N/A   Mostly Cloudy
1:55 AM 6.8 °F -2.0 °F 5.0 °F 92% 29.84 in 7.0 mi West 4.6 mph - N/A   Mostly Cloudy
2:15 AM 5.0 °F -5.6 °F 3.2 °F 92% 29.84 in 10.0 mi WNW 5.8 mph - N/A   Scattered Clouds
2:35 AM 5.0 °F -5.6 °F 3.2 °F 92% 29.85 in 10.0 mi West 5.8 mph - N/A   Clear
2:55 AM 5.0 °F -5.6 °F 3.2 °F 92% 29.85 in 10.0 mi WNW 5.8 mph - N/A   Scattered Clouds
3:15 AM 5.0 °F -4.1 °F 3.2 °F 92% 29.85 in 10.0 mi WNW 4.6 mph - N/A   Scattered Clouds
3:35 AM 5.0 °F -8.1 °F 1.4 °F 85% 29.86 in 10.0 mi NW 8.1 mph - N/A   Clear
3:55 AM 3.2 °F -7.8 °F -0.4 °F 85% 29.86 in 10.0 mi West 5.8 mph - N/A   Clear
4:15 AM 3.2 °F -4.2 °F 1.4 °F 92% 29.87 in 10.0 mi NW 3.5 mph - N/A   Clear
4:35 AM 5.0 °F -9.1 °F 1.4 °F 85% 29.87 in 10.0 mi NW 9.2 mph - N/A   Clear
4:55 AM 3.2 °F -6.2 °F 1.4 °F 92% 29.88 in 10.0 mi WNW 4.6 mph - N/A   Clear
5:15 AM 1.4 °F -9.9 °F -0.4 °F 92% 29.89 in 10.0 mi NW 5.8 mph - N/A   Clear
5:55 AM 3.2 °F -10.3 °F 1.4 °F 92% 29.90 in 10.0 mi WNW 8.1 mph - N/A   Clear
6:15 AM 3.2 °F -10.3 °F 1.4 °F 92% 29.91 in 10.0 mi WNW 8.1 mph - N/A   Clear
6:55 AM 1.4 °F -9.9 °F -2.2 °F 85% 29.93 in 10.0 mi West 5.8 mph - N/A   Clear
7:15 AM 1.4 °F -11.3 °F -0.4 °F 92% 29.95 in 10.0 mi WNW 6.9 mph - N/A   Clear
7:55 AM 5.0 °F -6.9 °F 1.4 °F 85% 29.96 in 10.0 mi WNW 6.9 mph - N/A   Clear
8:15 AM 6.8 °F -2.0 °F 3.2 °F 85% 29.97 in 10.0 mi West 4.6 mph - N/A   Clear
8:35 AM 10.4 °F -1.5 °F 5.0 °F 79% 29.97 in 10.0 mi West 8.1 mph - N/A   Clear
8:55 AM 12.2 °F 0.7 °F 5.0 °F 73% 29.97 in 10.0 mi WNW 8.1 mph - N/A   Clear
9:15 AM 14.0 °F 2.0 °F 5.0 °F 67% 29.98 in 10.0 mi WNW 9.2 mph - N/A   Clear
9:35 AM 15.8 °F 0.3 °F 5.0 °F 62% 29.98 in 10.0 mi WNW 16.1 mph - N/A   Clear
9:55 AM 17.6 °F 5.0 °F 6.8 °F 63% 29.99 in 10.0 mi WNW 11.5 mph - N/A   Clear
10:15 AM 17.6 °F 2.7 °F 6.8 °F 63% 30.00 in 10.0 mi WNW 16.1 mph 20.7 mph N/A   Scattered Clouds
10:35 AM 17.6 °F 3.2 °F 8.6 °F 68% 30.00 in 10.0 mi WNW 15.0 mph - N/A   Mostly Cloudy
10:55 AM 17.6 °F 3.7 °F 6.8 °F 63% 30.01 in 10.0 mi WNW 13.8 mph 23.0 mph N/A   Overcast
11:15 AM 19.4 °F 4.5 °F 8.6 °F 63% 30.01 in 10.0 mi NW 17.3 mph 21.9 mph N/A   Mostly Cloudy
11:35 AM 17.6 °F 0.5 °F 5.0 °F 58% 30.01 in 10.0 mi WNW 21.9 mph 25.3 mph N/A   Mostly Cloudy
11:55 AM 19.4 °F 4.1 °F 5.0 °F 54% 30.01 in 10.0 mi WNW 18.4 mph 25.3 mph N/A   Scattered Clouds
12:15 PM 19.4 °F 3.2 °F 5.0 °F 54% 30.01 in 10.0 mi WNW 20.7 mph - N/A   Mostly Cloudy
12:35 PM 19.4 °F 2.5 °F 5.0 °F 54% 30.01 in 10.0 mi NW 23.0 mph 27.6 mph N/A   Mostly Cloudy
12:55 PM 19.4 °F 2.1 °F 5.0 °F 54% 30.01 in 10.0 mi WNW 24.2 mph 32.2 mph N/A   Mostly Cloudy
1:15 PM 19.4 °F 1.8 °F 5.0 °F 54% 30.02 in 10.0 mi WNW 25.3 mph 35.7 mph N/A   Scattered Clouds
1:35 PM 19.4 °F 1.8 °F 5.0 °F 54% 30.03 in 10.0 mi WNW 25.3 mph 32.2 mph N/A   Scattered Clouds
1:55 PM 19.4 °F 2.8 °F 5.0 °F 54% 30.03 in 10.0 mi WNW 21.9 mph 31.1 mph N/A   Scattered Clouds
2:15 PM 19.4 °F 1.8 °F 3.2 °F 49% 30.03 in 10.0 mi WNW 25.3 mph 32.2 mph N/A   Clear
2:35 PM 19.4 °F 4.5 °F 3.2 °F 49% 30.05 in 10.0 mi WNW 17.3 mph 27.6 mph N/A   Clear
2:55 PM 17.6 °F 0.5 °F 3.2 °F 53% 30.05 in 10.0 mi WNW 21.9 mph 28.8 mph N/A   Clear
3:15 PM 17.6 °F 2.2 °F 5.0 °F 58% 30.06 in 10.0 mi WNW 17.3 mph 25.3 mph N/A   Clear
3:35 PM 17.6 °F 1.7 °F 5.0 °F 58% 30.07 in 10.0 mi WNW 18.4 mph 28.8 mph N/A   Mostly Cloudy
3:55 PM 17.6 °F 1.7 °F 5.0 °F 58% 30.08 in 10.0 mi WNW 18.4 mph 25.3 mph N/A   Scattered Clouds
4:15 PM 17.6 °F 1.3 °F 5.0 °F 58% 30.09 in 10.0 mi NW 19.6 mph 25.3 mph N/A   Mostly Cloudy
4:35 PM 17.6 °F 2.7 °F 5.0 °F 58% 30.11 in 10.0 mi WNW 16.1 mph 23.0 mph N/A   Mostly Cloudy
4:55 PM 15.8 °F 0.3 °F 3.2 °F 58% 30.11 in 10.0 mi WNW 16.1 mph - N/A   Clear
5:15 PM 14.0 °F -2.0 °F 3.2 °F 62% 30.12 in 10.0 mi WNW 16.1 mph 20.7 mph N/A   Clear
5:35 PM 12.2 °F -1.8 °F 3.2 °F 67% 30.13 in 10.0 mi WNW 11.5 mph - N/A   Clear
5:55 PM 12.2 °F -1.0 °F 3.2 °F 67% 30.14 in 10.0 mi WNW 10.4 mph - N/A   Clear
6:15 PM 10.4 °F -1.5 °F 3.2 °F 73% 30.16 in 10.0 mi NW 8.1 mph - N/A   Clear
6:35 PM 8.6 °F -1.3 °F 1.4 °F 73% 30.17 in 10.0 mi West 5.8 mph - N/A   Clear
6:55 PM 6.8 °F -0.1 °F 1.4 °F 79% 30.18 in 10.0 mi WNW 3.5 mph - N/A   Clear
7:15 PM 8.6 °F 0.1 °F 3.2 °F 79% 30.19 in 10.0 mi NNW 4.6 mph - N/A   Clear
7:35 PM 6.8 °F -0.1 °F 1.4 °F 79% 30.19 in 10.0 mi NNW 3.5 mph - N/A   Clear
7:55 PM 6.8 °F - 1.4 °F 79% 30.21 in 10.0 mi Calm Calm - N/A   Clear
8:15 PM 8.6 °F - 3.2 °F 79% 30.21 in 10.0 mi Calm Calm - N/A   Clear
8:35 PM 8.6 °F -3.7 °F 1.4 °F 73% 30.21 in 10.0 mi NW 8.1 mph - N/A   Clear
8:55 PM 8.6 °F - 1.4 °F 73% 30.22 in 10.0 mi Calm Calm - N/A   Clear
9:15 PM 6.8 °F - 1.4 °F 79% 30.23 in 10.0 mi Calm Calm - N/A   Clear
9:35 PM 8.6 °F 0.1 °F 3.2 °F 79% 30.24 in 10.0 mi West 4.6 mph - N/A   Clear
10:15 PM 8.6 °F -4.7 °F 3.2 °F 79% 30.24 in 10.0 mi NNW 9.2 mph - N/A   Clear
10:35 PM 8.6 °F 0.1 °F 3.2 °F 79% 30.25 in 10.0 mi NNW 4.6 mph - N/A   Clear
11:15 PM 8.6 °F -5.5 °F 3.2 °F 79% 30.24 in 10.0 mi WNW 10.4 mph - N/A   Clear
11:35 PM 10.4 °F -4.8 °F 3.2 °F 73% 30.24 in 10.0 mi WNW 12.7 mph - N/A   Clear
11:55 PM 10.4 °F -0.4 °F 3.2 °F 73% 30.24 in 10.0 mi WNW 6.9 mph - N/A   Clear